Time,TemperatureF,DewpointF,PressureIn,WindDirection,WindDirectionDegrees,WindSpeedMPH,WindSpeedGustMPH,Humidity,HourlyPrecipIn,Conditions,Clouds,dailyrainin,SolarRadiationWatts/m^2,SoftwareType,DateUTC
2013-11-12 00:03:00,49.5,6.5,30.14,WSW,241,0.0,3.0,17,0.00,,,0.00,0,WeatherCatV1.23B16,2013-11-12 08:03:00,
2013-11-12 00:08:00,49.8,8.0,30.14,West,272,0.0,6.0,18,0.00,,,0.00,0,WeatherCatV1.23B16,2013-11-12 08:08:00,
2013-11-12 00:13:00,49.9,6.8,30.14,West,275,0.0,3.0,17,0.00,,,0.00,0,WeatherCatV1.23B16,2013-11-12 08:13:00,
2013-11-12 00:18:00,50.1,7.0,30.12,WNW,288,1.0,3.0,17,0.00,,,0.00,0,WeatherCatV1.23B16,2013-11-12 08:18:00,
2013-11-12 00:23:00,50.2,7.1,30.12,WNW,283,2.0,5.0,17,0.00,,,0.00,0,WeatherCatV1.23B16,2013-11-12 08:23:00,
2013-11-12 00:28:00,50.2,7.1,30.12,West,270,1.0,5.0,17,0.00,,,0.00,0,WeatherCatV1.23B16,2013-11-12 08:28:00,
2013-11-12 00:33:00,50.2,7.1,30.12,WNW,293,2.0,8.0,17,0.00,,,0.00,0,WeatherCatV1.23B16,2013-11-12 08:33:00,
2013-11-12 00:38:00,50.1,7.0,30.12,WNW,288,6.0,6.0,17,0.00,,,0.00,0,WeatherCatV1.23B16,2013-11-12 08:38:00,
2013-11-12 00:43:00,49.9,6.8,30.12,WNW,283,2.0,2.0,17,0.00,,,0.00,0,WeatherCatV1.23B16,2013-11-12 08:43:00,
2013-11-12 00:48:00,49.9,5.5,30.11,SW,230,4.0,5.0,16,0.00,,,0.00,0,WeatherCatV1.23B16,2013-11-12 08:48:00,
2013-11-12 00:53:00,50.1,7.0,30.11,WNW,299,0.0,6.0,17,0.00,,,0.00,0,WeatherCatV1.23B16,2013-11-12 08:53:00,
2013-11-12 00:58:00,50.2,5.8,30.11,SSW,199,11.0,11.0,16,0.00,,,0.00,0,WeatherCatV1.23B16,2013-11-12 08:58:00,
2013-11-12 01:03:00,50.7,6.2,30.12,SSW,212,3.0,4.0,16,0.00,,,0.00,0,WeatherCatV1.23B16,2013-11-12 09:03:00,
2013-11-12 01:08:00,51.0,6.4,30.12,WSW,257,0.0,3.0,16,0.00,,,0.00,0,WeatherCatV1.23B16,2013-11-12 09:08:00,
2013-11-12 01:13:00,51.1,5.1,30.12,South,173,0.0,11.0,15,0.00,,,0.00,0,WeatherCatV1.23B16,2013-11-12 09:13:00,
2013-11-12 01:18:00,51.3,5.2,30.10,NNW,330,1.0,4.0,15,0.00,,,0.00,0,WeatherCatV1.23B16,2013-11-12 09:18:00,
2013-11-12 01:23:00,51.6,5.5,30.10,NW,326,0.0,5.0,15,0.00,,,0.00,0,WeatherCatV1.23B16,2013-11-12 09:23:00,
2013-11-12 01:28:00,51.6,6.9,30.10,NW,322,2.0,2.0,16,0.00,,,0.00,0,WeatherCatV1.23B16,2013-11-12 09:28:00,
2013-11-12 01:33:00,51.4,5.3,30.10,NW,320,1.0,3.0,15,0.00,,,0.00,0,WeatherCatV1.23B16,2013-11-12 09:33:00,
2013-11-12 01:38:00,51.4,5.3,30.10,NW,310,5.0,6.0,15,0.00,,,0.00,0,WeatherCatV1.23B16,2013-11-12 09:38:00,
2013-11-12 01:43:00,51.6,5.5,30.10,WNW,293,4.0,5.0,15,0.00,,,0.00,0,WeatherCatV1.23B16,2013-11-12 09:43:00,
2013-11-12 01:48:00,51.6,5.5,30.10,NW,314,4.0,8.0,15,0.00,,,0.00,0,WeatherCatV1.23B16,2013-11-12 09:48:00,
2013-11-12 01:53:00,51.9,5.7,30.10,WNW,293,5.0,7.0,15,0.00,,,0.00,0,WeatherCatV1.23B16,2013-11-12 09:53:00,
2013-11-12 01:58:00,52.0,7.2,30.10,NNW,343,0.0,0.0,16,0.00,,,0.00,0,WeatherCatV1.23B16,2013-11-12 09:58:00,
2013-11-12 02:03:00,52.0,5.8,30.09,NW,319,1.0,3.0,15,0.00,,,0.00,0,WeatherCatV1.23B16,2013-11-12 10:03:00,
2013-11-12 02:08:00,52.0,5.8,30.09,WNW,288,0.0,5.0,15,0.00,,,0.00,0,WeatherCatV1.23B16,2013-11-12 10:08:00,
2013-11-12 02:13:00,51.9,5.7,30.09,NW,307,3.0,7.0,15,0.00,,,0.00,0,WeatherCatV1.23B16,2013-11-12 10:13:00,
2013-11-12 02:18:00,51.7,7.0,30.10,NW,309,2.0,10.0,16,0.00,,,0.00,0,WeatherCatV1.23B16,2013-11-12 10:18:00,
2013-11-12 02:23:00,51.6,6.9,30.10,NW,306,9.0,9.0,16,0.00,,,0.00,0,WeatherCatV1.23B16,2013-11-12 10:23:00,
2013-11-12 02:28:00,51.4,6.7,30.10,West,279,5.0,6.0,16,0.00,,,0.00,0,WeatherCatV1.23B16,2013-11-12 10:28:00,
2013-11-12 02:33:00,51.3,6.7,30.12,WNW,303,4.0,5.0,16,0.00,,,0.00,0,WeatherCatV1.23B16,2013-11-12 10:33:00,
2013-11-12 02:38:00,51.3,6.7,30.12,WNW,303,0.0,3.0,16,0.00,,,0.00,0,WeatherCatV1.23B16,2013-11-12 10:38:00,
2013-11-12 02:43:00,51.1,6.5,30.12,WNW,293,0.0,4.0,16,0.00,,,0.00,0,WeatherCatV1.23B16,2013-11-12 10:43:00,
2013-11-12 02:48:00,51.1,6.5,30.12,WNW,288,4.0,6.0,16,0.00,,,0.00,0,WeatherCatV1.23B16,2013-11-12 10:48:00,
2013-11-12 02:53:00,51.3,6.7,30.12,WNW,288,0.0,3.0,16,0.00,,,0.00,0,WeatherCatV1.23B16,2013-11-12 10:53:00,
2013-11-12 02:59:00,51.4,6.7,30.12,WNW,288,0.0,4.0,16,0.00,,,0.00,0,WeatherCatV1.23B16,2013-11-12 10:59:00,
2013-11-12 03:04:00,51.4,6.7,30.12,WNW,288,0.0,0.0,16,0.00,,,0.00,0,WeatherCatV1.23B16,2013-11-12 11:04:00,
2013-11-12 03:09:00,51.4,6.7,30.12,WNW,288,0.0,3.0,16,0.00,,,0.00,0,WeatherCatV1.23B16,2013-11-12 11:09:00,
2013-11-12 03:14:00,51.4,8.1,30.13,WNW,288,0.0,1.0,17,0.00,,,0.00,0,WeatherCatV1.23B16,2013-11-12 11:14:00,
2013-11-12 03:19:00,51.3,6.7,30.13,WNW,288,0.0,2.0,16,0.00,,,0.00,0,WeatherCatV1.23B16,2013-11-12 11:19:00,
2013-11-12 03:24:00,51.0,7.8,30.13,NW,304,4.0,6.0,17,0.00,,,0.00,0,WeatherCatV1.23B16,2013-11-12 11:24:00,
2013-11-12 03:29:00,51.0,7.8,30.13,NNW,327,3.0,4.0,17,0.00,,,0.00,0,WeatherCatV1.23B16,2013-11-12 11:29:00,
2013-11-12 03:34:00,50.8,7.6,30.13,NW,307,3.0,5.0,17,0.00,,,0.00,0,WeatherCatV1.23B16,2013-11-12 11:34:00,
2013-11-12 03:39:00,50.8,7.6,30.13,WNW,293,0.0,7.0,17,0.00,,,0.00,0,WeatherCatV1.23B16,2013-11-12 11:39:00,
2013-11-12 03:44:00,50.8,7.6,30.12,WNW,283,0.0,4.0,17,0.00,,,0.00,0,WeatherCatV1.23B16,2013-11-12 11:44:00,
2013-11-12 03:49:00,50.7,7.5,30.12,WNW,288,0.0,0.0,17,0.00,,,0.00,0,WeatherCatV1.23B16,2013-11-12 11:49:00,
2013-11-12 03:54:00,50.5,7.3,30.12,NW,318,1.0,4.0,17,0.00,,,0.00,0,WeatherCatV1.23B16,2013-11-12 11:54:00,
2013-11-12 03:59:00,50.4,7.3,30.14,West,270,0.0,1.0,17,0.00,,,0.00,0,WeatherCatV1.23B16,2013-11-12 11:59:00,
2013-11-12 04:04:00,50.4,7.3,30.14,NNW,331,0.0,3.0,17,0.00,,,0.00,0,WeatherCatV1.23B16,2013-11-12 12:04:00,
2013-11-12 04:09:00,50.4,7.3,30.14,NNW,330,0.0,0.0,17,0.00,,,0.00,0,WeatherCatV1.23B16,2013-11-12 12:09:00,
2013-11-12 04:14:00,50.4,7.3,30.15,WNW,293,3.0,5.0,17,0.00,,,0.00,0,WeatherCatV1.23B16,2013-11-12 12:14:00,
2013-11-12 04:19:00,50.4,7.3,30.15,WNW,293,2.0,5.0,17,0.00,,,0.00,0,WeatherCatV1.23B16,2013-11-12 12:19:00,
2013-11-12 04:24:00,50.4,7.3,30.15,NW,305,0.0,3.0,17,0.00,,,0.00,0,WeatherCatV1.23B16,2013-11-12 12:24:00,
2013-11-12 04:29:00,50.4,7.3,30.16,NW,320,3.0,4.0,17,0.00,,,0.00,0,WeatherCatV1.23B16,2013-11-12 12:29:00,
2013-11-12 04:34:00,50.4,7.3,30.16,NW,319,0.0,6.0,17,0.00,,,0.00,0,WeatherCatV1.23B16,2013-11-12 12:34:00,
2013-11-12 04:39:00,50.4,7.3,30.16,WNW,283,2.0,5.0,17,0.00,,,0.00,0,WeatherCatV1.23B16,2013-11-12 12:39:00,
2013-11-12 04:44:00,50.4,8.5,30.16,WNW,288,4.0,4.0,18,0.00,,,0.00,0,WeatherCatV1.23B16,2013-11-12 12:44:00,
2013-11-12 04:49:00,50.2,7.1,30.16,WNW,303,2.0,5.0,17,0.00,,,0.00,0,WeatherCatV1.23B16,2013-11-12 12:49:00,
2013-11-12 04:54:00,50.4,7.3,30.16,NNW,338,1.0,6.0,17,0.00,,,0.00,0,WeatherCatV1.23B16,2013-11-12 12:54:00,
2013-11-12 04:59:00,50.5,7.3,30.16,WNW,297,3.0,6.0,17,0.00,,,0.00,0,WeatherCatV1.23B16,2013-11-12 12:59:00,
2013-11-12 05:04:00,50.7,7.5,30.16,WNW,293,2.0,6.0,17,0.00,,,0.00,0,WeatherCatV1.23B16,2013-11-12 13:04:00,
2013-11-12 05:09:00,50.7,7.5,30.16,WNW,283,5.0,6.0,17,0.00,,,0.00,0,WeatherCatV1.23B16,2013-11-12 13:09:00,
2013-11-12 05:14:00,50.5,7.3,30.16,WNW,283,3.0,4.0,17,0.00,,,0.00,0,WeatherCatV1.23B16,2013-11-12 13:14:00,
2013-11-12 05:19:00,50.4,8.5,30.16,WNW,288,0.0,1.0,18,0.00,,,0.00,0,WeatherCatV1.23B16,2013-11-12 13:19:00,
2013-11-12 05:24:00,50.4,7.3,30.16,WNW,283,0.0,1.0,17,0.00,,,0.00,0,WeatherCatV1.23B16,2013-11-12 13:24:00,
2013-11-12 05:29:00,50.1,7.0,30.18,West,279,0.0,2.0,17,0.00,,,0.00,0,WeatherCatV1.23B16,2013-11-12 13:29:00,
2013-11-12 05:34:00,49.9,6.8,30.18,WNW,283,2.0,2.0,17,0.00,,,0.00,0,WeatherCatV1.23B16,2013-11-12 13:34:00,
2013-11-12 05:39:00,49.9,6.8,30.18,West,276,0.0,2.0,17,0.00,,,0.00,0,WeatherCatV1.23B16,2013-11-12 13:39:00,
2013-11-12 05:44:00,49.8,6.8,30.19,West,275,2.0,2.0,17,0.00,,,0.00,0,WeatherCatV1.23B16,2013-11-12 13:44:00,
2013-11-12 05:49:00,49.8,6.8,30.19,WSW,249,0.0,4.0,17,0.00,,,0.00,0,WeatherCatV1.23B16,2013-11-12 13:49:00,
2013-11-12 05:54:00,49.6,6.6,30.19,SW,222,0.0,2.0,17,0.00,,,0.00,0,WeatherCatV1.23B16,2013-11-12 13:54:00,
2013-11-12 05:59:00,49.6,6.6,30.20,West,261,3.0,4.0,17,0.00,,,0.00,0,WeatherCatV1.23B16,2013-11-12 13:59:00,
2013-11-12 06:04:00,49.6,6.6,30.20,WNW,283,1.0,5.0,17,0.00,,,0.00,0,WeatherCatV1.23B16,2013-11-12 14:04:00,
2013-11-12 06:09:00,49.6,7.9,30.20,WNW,283,0.0,2.0,18,0.00,,,0.00,0,WeatherCatV1.23B16,2013-11-12 14:09:00,
2013-11-12 06:14:00,49.5,7.8,30.20,WNW,283,0.0,1.0,18,0.00,,,0.00,0,WeatherCatV1.23B16,2013-11-12 14:14:00,
2013-11-12 06:19:00,49.5,6.5,30.20,WNW,283,1.0,3.0,17,0.00,,,0.00,0,WeatherCatV1.23B16,2013-11-12 14:19:00,
2013-11-12 06:24:00,49.4,6.4,30.20,West,278,0.0,4.0,17,0.00,,,0.00,0,WeatherCatV1.23B16,2013-11-12 14:24:00,
2013-11-12 06:29:00,49.4,6.4,30.20,West,278,1.0,3.0,17,0.00,,,0.00,0,WeatherCatV1.23B16,2013-11-12 14:29:00,
2013-11-12 06:34:00,49.2,7.5,30.20,West,277,4.0,4.0,18,0.00,,,0.00,0,WeatherCatV1.23B16,2013-11-12 14:34:00,
2013-11-12 06:39:00,49.1,7.4,30.20,NW,311,5.0,10.0,18,0.00,,,0.00,0,WeatherCatV1.23B16,2013-11-12 14:39:00,
2013-11-12 06:44:00,49.1,7.4,30.20,WNW,288,2.0,7.0,18,0.00,,,0.00,0,WeatherCatV1.23B16,2013-11-12 14:44:00,
2013-11-12 06:49:00,48.9,7.3,30.20,SSW,209,0.0,4.0,18,0.00,,,0.00,0,WeatherCatV1.23B16,2013-11-12 14:49:00,
2013-11-12 06:54:00,48.9,8.5,30.20,South,185,0.0,4.0,19,0.00,,,0.00,0,WeatherCatV1.23B16,2013-11-12 14:54:00,
2013-11-12 06:59:00,48.9,7.3,30.21,West,272,4.0,6.0,18,0.00,,,0.00,0,WeatherCatV1.23B16,2013-11-12 14:59:00,
2013-11-12 07:05:00,49.1,7.4,30.21,South,187,7.0,7.0,18,0.00,,,0.00,0,WeatherCatV1.23B16,2013-11-12 15:05:00,
2013-11-12 07:10:00,49.6,15.2,30.21,SW,219,4.0,12.0,25,0.00,,,0.00,5,WeatherCatV1.23B16,2013-11-12 15:10:00,
2013-11-12 07:15:00,49.8,8.0,30.20,SW,232,2.0,3.0,18,0.00,,,0.00,7,WeatherCatV1.23B16,2013-11-12 15:15:00,
2013-11-12 07:20:00,50.1,8.3,30.20,WNW,288,6.0,6.0,18,0.00,,,0.00,9,WeatherCatV1.23B16,2013-11-12 15:20:00,
2013-11-12 07:25:00,50.5,12.0,30.20,South,180,0.0,5.0,21,0.00,,,0.00,11,WeatherCatV1.23B16,2013-11-12 15:25:00,
2013-11-12 07:30:00,50.8,16.3,30.20,West,270,6.0,7.0,25,0.00,,,0.00,12,WeatherCatV1.23B16,2013-11-12 15:30:00,
2013-11-12 07:35:00,51.0,15.5,30.20,SSW,209,2.0,4.0,24,0.00,,,0.00,12,WeatherCatV1.23B16,2013-11-12 15:35:00,
2013-11-12 07:40:00,51.0,18.2,30.20,West,267,3.0,18.0,27,0.00,,,0.00,14,WeatherCatV1.23B16,2013-11-12 15:40:00,
2013-11-12 07:46:00,50.8,18.9,30.21,South,178,3.0,6.0,28,0.00,,,0.00,12,WeatherCatV1.23B16,2013-11-12 15:46:00,
2013-11-12 07:51:00,50.8,19.7,30.21,South,188,3.0,5.0,29,0.00,,,0.00,14,WeatherCatV1.23B16,2013-11-12 15:51:00,
2013-11-12 07:56:00,50.4,27.0,30.21,WSW,248,3.0,9.0,40,0.00,,,0.00,18,WeatherCatV1.23B16,2013-11-12 15:56:00,
2013-11-12 08:01:00,49.9,27.1,30.21,WNW,283,0.0,5.0,41,0.00,,,0.00,21,WeatherCatV1.23B16,2013-11-12 16:01:00,
2013-11-12 08:06:00,49.4,24.9,30.21,SW,235,1.0,6.0,38,0.00,,,0.00,30,WeatherCatV1.23B16,2013-11-12 16:06:00,
2013-11-12 08:11:00,49.1,24.6,30.21,West,270,3.0,8.0,38,0.00,,,0.00,30,WeatherCatV1.23B16,2013-11-12 16:11:00,
2013-11-12 08:16:00,48.9,24.4,30.23,West,259,0.0,5.0,38,0.00,,,0.00,25,WeatherCatV1.23B16,2013-11-12 16:16:00,
2013-11-12 08:21:00,48.9,24.4,30.23,South,190,4.0,5.0,38,0.00,,,0.00,21,WeatherCatV1.23B16,2013-11-12 16:21:00,
2013-11-12 08:26:00,48.8,25.0,30.23,South,185,2.0,5.0,39,0.00,,,0.00,25,WeatherCatV1.23B16,2013-11-12 16:26:00,
2013-11-12 08:31:00,48.8,25.0,30.24,South,176,2.0,10.0,39,0.00,,,0.00,26,WeatherCatV1.23B16,2013-11-12 16:31:00,
2013-11-12 08:36:00,48.8,24.3,30.24,SSE,168,4.0,4.0,38,0.00,,,0.00,30,WeatherCatV1.23B16,2013-11-12 16:36:00,
2013-11-12 08:41:00,48.8,25.0,30.24,South,172,7.0,10.0,39,0.00,,,0.00,30,WeatherCatV1.23B16,2013-11-12 16:41:00,
2013-11-12 08:46:00,49.1,22.6,30.24,SSE,153,11.0,12.0,35,0.00,,,0.00,25,WeatherCatV1.23B16,2013-11-12 16:46:00,
2013-11-12 08:51:00,49.6,21.0,30.24,SSE,152,9.0,11.0,32,0.00,,,0.00,23,WeatherCatV1.23B16,2013-11-12 16:51:00,
2013-11-12 08:56:00,50.1,20.7,30.24,SE,124,5.0,10.0,31,0.00,,,0.00,30,WeatherCatV1.23B16,2013-11-12 16:56:00,
2013-11-12 09:01:00,50.4,20.1,30.22,SE,141,13.0,16.0,30,0.00,,,0.00,32,WeatherCatV1.23B16,2013-11-12 17:01:00,
2013-11-12 09:06:00,50.7,20.4,30.22,South,187,2.0,3.0,30,0.00,,,0.00,40,WeatherCatV1.23B16,2013-11-12 17:06:00,
2013-11-12 09:11:00,50.7,20.4,30.22,SSE,168,5.0,11.0,30,0.00,,,0.00,39,WeatherCatV1.23B16,2013-11-12 17:11:00,
2013-11-12 09:16:00,50.8,19.7,30.22,SSE,155,2.0,7.0,29,0.00,,,0.00,42,WeatherCatV1.23B16,2013-11-12 17:16:00,
2013-11-12 09:21:00,50.8,19.7,30.22,SSE,163,0.0,7.0,29,0.00,,,0.00,63,WeatherCatV1.23B16,2013-11-12 17:21:00,
2013-11-12 09:26:00,51.0,19.1,30.22,SSE,157,0.0,0.0,28,0.00,,,0.00,81,WeatherCatV1.23B16,2013-11-12 17:26:00,
2013-11-12 09:31:00,51.1,20.0,30.21,East,97,0.0,4.0,29,0.00,,,0.00,93,WeatherCatV1.23B16,2013-11-12 17:31:00,
2013-11-12 09:36:00,51.3,19.3,30.21,ENE,78,0.0,5.0,28,0.00,,,0.00,91,WeatherCatV1.23B16,2013-11-12 17:36:00,
2013-11-12 09:41:00,51.3,20.1,30.21,East,89,4.0,4.0,29,0.00,,,0.00,109,WeatherCatV1.23B16,2013-11-12 17:41:00,
2013-11-12 09:46:00,51.4,20.2,30.20,ESE,103,5.0,10.0,29,0.00,,,0.00,158,WeatherCatV1.23B16,2013-11-12 17:46:00,
2013-11-12 09:51:00,51.6,19.6,30.20,ESE,114,2.0,9.0,28,0.00,,,0.00,188,WeatherCatV1.23B16,2013-11-12 17:51:00,
2013-11-12 09:56:00,51.7,19.7,30.20,SE,146,6.0,11.0,28,0.00,,,0.00,171,WeatherCatV1.23B16,2013-11-12 17:56:00,
2013-11-12 10:01:00,52.0,19.9,30.20,ESE,122,6.0,6.0,28,0.00,,,0.00,151,WeatherCatV1.23B16,2013-11-12 18:01:00,
2013-11-12 10:06:00,52.0,19.1,30.20,East,100,3.0,8.0,27,0.00,,,0.00,162,WeatherCatV1.23B16,2013-11-12 18:06:00,
2013-11-12 10:11:00,52.2,20.1,30.20,ESE,104,3.0,4.0,28,0.00,,,0.00,188,WeatherCatV1.23B16,2013-11-12 18:11:00,
2013-11-12 10:16:00,52.2,20.1,30.22,SE,135,0.0,6.0,28,0.00,,,0.00,214,WeatherCatV1.23B16,2013-11-12 18:16:00,
2013-11-12 10:21:00,52.3,19.3,30.22,ESE,107,0.0,3.0,27,0.00,,,0.00,250,WeatherCatV1.23B16,2013-11-12 18:21:00,
2013-11-12 10:26:00,52.8,20.6,30.22,East,94,0.0,3.0,28,0.00,,,0.00,325,WeatherCatV1.23B16,2013-11-12 18:26:00,
2013-11-12 10:31:00,53.3,20.2,30.19,SSE,159,0.0,6.0,27,0.00,,,0.00,308,WeatherCatV1.23B16,2013-11-12 18:31:00,
2013-11-12 10:36:00,53.6,21.3,30.19,SE,136,0.0,3.0,28,0.00,,,0.00,302,WeatherCatV1.23B16,2013-11-12 18:36:00,
2013-11-12 10:41:00,54.2,21.8,30.19,East,100,5.0,5.0,28,0.00,,,0.00,779,WeatherCatV1.23B16,2013-11-12 18:41:00,
2013-11-12 10:46:00,55.4,21.1,30.17,ESE,111,2.0,6.0,26,0.00,,,0.00,724,WeatherCatV1.23B16,2013-11-12 18:46:00,
2013-11-12 10:51:00,56.6,22.1,30.17,SE,124,6.0,6.0,26,0.00,,,0.00,640,WeatherCatV1.23B16,2013-11-12 18:51:00,
2013-11-12 10:56:00,57.6,21.1,30.17,SE,133,1.0,4.0,24,0.00,,,0.00,649,WeatherCatV1.23B16,2013-11-12 18:56:00,
2013-11-12 11:01:00,58.3,20.7,30.15,ESE,107,0.0,6.0,23,0.00,,,0.00,784,WeatherCatV1.23B16,2013-11-12 19:01:00,
2013-11-12 11:06:00,58.7,22.0,30.15,SE,130,2.0,2.0,24,0.00,,,0.00,292,WeatherCatV1.23B16,2013-11-12 19:06:00,
2013-11-12 11:11:00,58.7,23.9,30.15,East,99,0.0,0.0,26,0.00,,,0.00,214,WeatherCatV1.23B16,2013-11-12 19:11:00,
2013-11-12 11:16:00,58.6,21.9,30.15,WNW,288,3.0,5.0,24,0.00,,,0.00,265,WeatherCatV1.23B16,2013-11-12 19:16:00,
2013-11-12 11:21:00,58.1,23.4,30.15,WNW,293,0.0,5.0,26,0.00,,,0.00,297,WeatherCatV1.23B16,2013-11-12 19:21:00,
2013-11-12 11:26:00,56.9,22.4,30.15,NNW,339,0.0,4.0,26,0.00,,,0.00,255,WeatherCatV1.23B16,2013-11-12 19:26:00,
2013-11-12 11:31:00,56.6,23.0,30.16,West,278,3.0,6.0,27,0.00,,,0.00,190,WeatherCatV1.23B16,2013-11-12 19:31:00,
2013-11-12 11:36:00,56.2,23.5,30.16,WNW,288,5.0,6.0,28,0.00,,,0.00,174,WeatherCatV1.23B16,2013-11-12 19:36:00,
2013-11-12 11:41:00,55.9,23.3,30.16,WNW,288,2.0,3.0,28,0.00,,,0.00,156,WeatherCatV1.23B16,2013-11-12 19:41:00,
2013-11-12 11:46:00,55.6,23.0,30.16,WNW,288,3.0,3.0,28,0.00,,,0.00,109,WeatherCatV1.23B16,2013-11-12 19:46:00,
2013-11-12 11:51:00,55.1,22.6,30.16,NW,304,1.0,5.0,28,0.00,,,0.00,105,WeatherCatV1.23B16,2013-11-12 19:51:00,
2013-11-12 11:56:00,54.7,22.2,30.16,WNW,288,0.0,5.0,28,0.00,,,0.00,118,WeatherCatV1.23B16,2013-11-12 19:56:00,
2013-11-12 12:01:00,54.4,22.0,30.17,NW,312,1.0,4.0,28,0.00,,,0.00,156,WeatherCatV1.23B16,2013-11-12 20:01:00,
2013-11-12 12:06:00,54.1,22.6,30.17,West,279,6.0,9.0,29,0.00,,,0.00,123,WeatherCatV1.23B16,2013-11-12 20:06:00,
2013-11-12 12:11:00,53.6,21.3,30.17,NW,322,5.0,8.0,28,0.00,,,0.00,93,WeatherCatV1.23B16,2013-11-12 20:11:00,
2013-11-12 12:16:00,53.3,21.0,30.16,WNW,288,7.0,9.0,28,0.00,,,0.00,127,WeatherCatV1.23B16,2013-11-12 20:16:00,
2013-11-12 12:21:00,53.1,20.9,30.16,NW,324,5.0,6.0,28,0.00,,,0.00,125,WeatherCatV1.23B16,2013-11-12 20:21:00,
2013-11-12 12:26:00,52.9,19.8,30.16,NNW,336,2.0,12.0,27,0.00,,,0.00,118,WeatherCatV1.23B16,2013-11-12 20:26:00,
2013-11-12 12:31:00,52.9,20.7,30.19,NW,313,1.0,11.0,28,0.00,,,0.00,172,WeatherCatV1.23B16,2013-11-12 20:31:00,
2013-11-12 12:36:00,52.8,20.6,30.19,NW,309,5.0,9.0,28,0.00,,,0.00,199,WeatherCatV1.23B16,2013-11-12 20:36:00,
2013-11-12 12:41:00,52.8,19.8,30.19,WNW,302,4.0,7.0,27,0.00,,,0.00,181,WeatherCatV1.23B16,2013-11-12 20:41:00,
2013-11-12 12:46:00,52.6,19.6,30.18,North,350,2.0,11.0,27,0.00,,,0.00,144,WeatherCatV1.23B16,2013-11-12 20:46:00,
2013-11-12 12:51:00,52.6,21.3,30.18,NW,313,0.0,6.0,29,0.00,,,0.00,195,WeatherCatV1.23B16,2013-11-12 20:51:00,
2013-11-12 12:56:00,52.6,20.4,30.18,NW,306,5.0,8.0,28,0.00,,,0.00,171,WeatherCatV1.23B16,2013-11-12 20:56:00,
2013-11-12 13:01:00,52.6,21.3,30.18,NW,311,6.0,6.0,29,0.00,,,0.00,167,WeatherCatV1.23B16,2013-11-12 21:01:00,
2013-11-12 13:06:00,52.6,20.4,30.18,WNW,301,4.0,7.0,28,0.00,,,0.00,176,WeatherCatV1.23B16,2013-11-12 21:06:00,
2013-11-12 13:11:00,52.6,21.3,30.18,NW,322,4.0,4.0,29,0.00,,,0.00,139,WeatherCatV1.23B16,2013-11-12 21:11:00,
2013-11-12 13:16:00,52.6,20.4,30.16,WNW,293,5.0,7.0,28,0.00,,,0.00,146,WeatherCatV1.23B16,2013-11-12 21:16:00,
2013-11-12 13:21:00,52.6,20.4,30.16,NW,310,5.0,5.0,28,0.00,,,0.00,169,WeatherCatV1.23B16,2013-11-12 21:21:00,
2013-11-12 13:26:00,52.6,20.4,30.16,NW,321,4.0,6.0,28,0.00,,,0.00,193,WeatherCatV1.23B16,2013-11-12 21:26:00,
2013-11-12 13:31:00,52.6,19.6,30.16,WNW,303,1.0,9.0,27,0.00,,,0.00,271,WeatherCatV1.23B16,2013-11-12 21:31:00,
2013-11-12 13:36:00,52.9,20.7,30.16,NW,318,4.0,6.0,28,0.00,,,0.00,281,WeatherCatV1.23B16,2013-11-12 21:36:00,
2013-11-12 13:41:00,53.2,20.1,30.16,NW,309,1.0,5.0,27,0.00,,,0.00,696,WeatherCatV1.23B16,2013-11-12 21:41:00,
2013-11-12 13:46:00,53.6,20.4,30.15,WNW,283,0.0,7.0,27,0.00,,,0.00,192,WeatherCatV1.23B16,2013-11-12 21:46:00,
2013-11-12 13:51:00,53.8,20.6,30.15,WNW,293,6.0,7.0,27,0.00,,,0.00,202,WeatherCatV1.23B16,2013-11-12 21:51:00,
2013-11-12 13:56:00,53.8,19.7,30.15,WNW,303,10.0,10.0,26,0.00,,,0.00,497,WeatherCatV1.23B16,2013-11-12 21:56:00,
2013-11-12 14:01:00,53.9,20.7,30.13,WNW,293,4.0,7.0,27,0.00,,,0.00,316,WeatherCatV1.23B16,2013-11-12 22:01:00,
2013-11-12 14:06:00,53.9,19.8,30.13,WNW,283,0.0,4.0,26,0.00,,,0.00,65,WeatherCatV1.23B16,2013-11-12 22:06:00,
2013-11-12 14:11:00,53.9,19.8,30.13,WNW,283,2.0,3.0,26,0.00,,,0.00,123,WeatherCatV1.23B16,2013-11-12 22:11:00,
2013-11-12 14:16:00,53.9,20.7,30.15,WNW,283,0.0,0.0,27,0.00,,,0.00,186,WeatherCatV1.23B16,2013-11-12 22:16:00,
2013-11-12 14:21:00,54.1,21.7,30.15,WNW,283,0.0,0.0,28,0.00,,,0.00,200,WeatherCatV1.23B16,2013-11-12 22:21:00,
2013-11-12 14:26:00,54.5,22.1,30.15,SW,226,0.0,0.0,28,0.00,,,0.00,179,WeatherCatV1.23B16,2013-11-12 22:26:00,
2013-11-12 14:31:00,54.8,22.3,30.13,SW,226,0.0,1.0,28,0.00,,,0.00,155,WeatherCatV1.23B16,2013-11-12 22:31:00,
2013-11-12 14:36:00,55.1,21.7,30.13,SW,226,0.0,0.0,27,0.00,,,0.00,153,WeatherCatV1.23B16,2013-11-12 22:36:00,
2013-11-12 14:41:00,55.3,21.9,30.13,SW,226,0.0,0.0,27,0.00,,,0.00,171,WeatherCatV1.23B16,2013-11-12 22:41:00,
2013-11-12 14:46:00,55.4,22.0,30.13,SW,226,0.0,0.0,27,0.00,,,0.00,169,WeatherCatV1.23B16,2013-11-12 22:46:00,
2013-11-12 14:51:00,55.7,21.4,30.13,SW,224,0.0,1.0,26,0.00,,,0.00,148,WeatherCatV1.23B16,2013-11-12 22:51:00,
2013-11-12 14:56:00,55.7,21.4,30.13,SW,224,0.0,2.0,26,0.00,,,0.00,90,WeatherCatV1.23B16,2013-11-12 22:56:00,
2013-11-12 15:01:00,55.6,22.2,30.13,WSW,241,3.0,3.0,27,0.00,,,0.00,90,WeatherCatV1.23B16,2013-11-12 23:01:00,
2013-11-12 15:06:00,55.3,22.8,30.13,NNW,333,0.0,5.0,28,0.00,,,0.00,98,WeatherCatV1.23B16,2013-11-12 23:06:00,
2013-11-12 15:11:00,55.0,22.5,30.13,WNW,283,5.0,6.0,28,0.00,,,0.00,118,WeatherCatV1.23B16,2013-11-12 23:11:00,
2013-11-12 15:16:00,54.8,23.2,30.16,West,276,0.0,0.0,29,0.00,,,0.00,97,WeatherCatV1.23B16,2013-11-12 23:16:00,
2013-11-12 15:21:00,54.7,23.9,30.16,WNW,283,1.0,3.0,30,0.00,,,0.00,95,WeatherCatV1.23B16,2013-11-12 23:21:00,
2013-11-12 15:26:00,54.5,24.5,30.16,WNW,283,0.0,0.0,31,0.00,,,0.00,100,WeatherCatV1.23B16,2013-11-12 23:26:00,
2013-11-12 15:31:00,54.4,22.8,30.15,NW,305,0.0,5.0,29,0.00,,,0.00,95,WeatherCatV1.23B16,2013-11-12 23:31:00,
2013-11-12 15:36:00,54.2,21.8,30.15,WNW,293,0.0,1.0,28,0.00,,,0.00,77,WeatherCatV1.23B16,2013-11-12 23:36:00,
2013-11-12 15:41:00,53.9,21.6,30.15,WNW,293,5.0,6.0,28,0.00,,,0.00,65,WeatherCatV1.23B16,2013-11-12 23:41:00,
2013-11-12 15:46:00,53.6,21.3,30.15,WNW,293,6.0,8.0,28,0.00,,,0.00,51,WeatherCatV1.23B16,2013-11-12 23:46:00,
2013-11-12 15:51:00,53.3,21.0,30.15,West,279,0.0,6.0,28,0.00,,,0.00,44,WeatherCatV1.23B16,2013-11-12 23:51:00,
2013-11-12 15:56:00,53.1,20.9,30.15,West,277,0.0,5.0,28,0.00,,,0.00,42,WeatherCatV1.23B16,2013-11-12 23:56:00,
2013-11-12 16:01:00,52.8,19.8,30.17,WNW,297,6.0,8.0,27,0.00,,,0.00,37,WeatherCatV1.23B16,2013-11-13 00:01:00,
2013-11-12 16:06:00,52.5,19.5,30.17,WNW,288,5.0,9.0,27,0.00,,,0.00,32,WeatherCatV1.23B16,2013-11-13 00:06:00,
2013-11-12 16:11:00,52.3,20.2,30.17,WNW,299,6.0,7.0,28,0.00,,,0.00,33,WeatherCatV1.23B16,2013-11-13 00:11:00,
2013-11-12 16:16:00,52.2,21.7,30.17,NW,309,9.0,10.0,30,0.00,,,0.00,23,WeatherCatV1.23B16,2013-11-13 00:16:00,
2013-11-12 16:21:00,52.0,22.3,30.17,WNW,283,3.0,9.0,31,0.00,,,0.00,16,WeatherCatV1.23B16,2013-11-13 00:21:00,
2013-11-12 16:26:00,51.9,22.2,30.17,WNW,299,6.0,7.0,31,0.00,,,0.00,11,WeatherCatV1.23B16,2013-11-13 00:26:00,
2013-11-12 16:31:00,51.6,23.5,30.17,WNW,303,5.0,11.0,33,0.00,,,0.00,9,WeatherCatV1.23B16,2013-11-13 00:31:00,
2013-11-12 16:36:00,51.4,24.0,30.17,NW,310,5.0,8.0,34,0.00,,,0.00,7,WeatherCatV1.23B16,2013-11-13 00:36:00,
2013-11-12 16:41:00,51.1,23.7,30.17,NW,305,5.0,7.0,34,0.00,,,0.00,5,WeatherCatV1.23B16,2013-11-13 00:41:00,
2013-11-12 16:46:00,51.0,23.6,30.17,NW,306,7.0,7.0,34,0.00,,,0.00,0,WeatherCatV1.23B16,2013-11-13 00:46:00,
2013-11-12 16:51:00,50.7,24.1,30.17,NW,314,5.0,9.0,35,0.00,,,0.00,0,WeatherCatV1.23B16,2013-11-13 00:51:00,
2013-11-12 16:56:00,50.7,24.1,30.17,WNW,303,4.0,4.0,35,0.00,,,0.00,0,WeatherCatV1.23B16,2013-11-13 00:56:00,
2013-11-12 17:01:00,50.5,23.9,30.17,WNW,303,2.0,4.0,35,0.00,,,0.00,0,WeatherCatV1.23B16,2013-11-13 01:01:00,
2013-11-12 17:06:00,50.4,23.8,30.17,WNW,303,2.0,3.0,35,0.00,,,0.00,0,WeatherCatV1.23B16,2013-11-13 01:06:00,
2013-11-12 17:11:00,50.2,23.6,30.17,WNW,303,2.0,2.0,35,0.00,,,0.00,0,WeatherCatV1.23B16,2013-11-13 01:11:00,
2013-11-12 17:16:00,50.1,22.8,30.19,WNW,303,0.0,0.0,34,0.00,,,0.00,0,WeatherCatV1.23B16,2013-11-13 01:16:00,
2013-11-12 17:22:00,50.1,23.5,30.19,WNW,303,0.0,1.0,35,0.00,,,0.00,0,WeatherCatV1.23B16,2013-11-13 01:22:00,
2013-11-12 17:27:00,49.9,24.0,30.19,WNW,303,0.0,0.0,36,0.00,,,0.00,0,WeatherCatV1.23B16,2013-11-13 01:27:00,
2013-11-12 17:32:00,49.8,23.9,30.18,WNW,303,2.0,2.0,36,0.00,,,0.00,0,WeatherCatV1.23B16,2013-11-13 01:32:00,
2013-11-12 17:37:00,49.6,24.4,30.18,WNW,303,0.0,1.0,37,0.00,,,0.00,0,WeatherCatV1.23B16,2013-11-13 01:37:00,
2013-11-12 17:42:00,49.4,24.2,30.18,WNW,303,2.0,3.0,37,0.00,,,0.00,0,WeatherCatV1.23B16,2013-11-13 01:42:00,
2013-11-12 17:47:00,49.1,24.6,30.20,WNW,303,0.0,3.0,38,0.00,,,0.00,0,WeatherCatV1.23B16,2013-11-13 01:47:00,
2013-11-12 17:52:00,48.9,24.4,30.20,WNW,303,0.0,0.0,38,0.00,,,0.00,0,WeatherCatV1.23B16,2013-11-13 01:52:00,
2013-11-12 17:57:00,48.6,22.9,30.20,WNW,293,2.0,4.0,36,0.00,,,0.00,0,WeatherCatV1.23B16,2013-11-13 01:57:00,
2013-11-12 18:02:00,48.5,22.8,30.20,WSW,249,2.0,4.0,36,0.00,,,0.00,0,WeatherCatV1.23B16,2013-11-13 02:02:00,
2013-11-12 18:07:00,48.2,23.2,30.20,West,261,0.0,0.0,37,0.00,,,0.00,0,WeatherCatV1.23B16,2013-11-13 02:07:00,
2013-11-12 18:12:00,47.7,23.4,30.20,West,264,0.0,2.0,38,0.00,,,0.00,0,WeatherCatV1.23B16,2013-11-13 02:12:00,
2013-11-12 18:17:00,47.4,23.7,30.22,West,266,3.0,4.0,39,0.00,,,0.00,0,WeatherCatV1.23B16,2013-11-13 02:17:00,
2013-11-12 18:22:00,47.3,23.6,30.22,WNW,288,0.0,2.0,39,0.00,,,0.00,0,WeatherCatV1.23B16,2013-11-13 02:22:00,
2013-11-12 18:27:00,47.0,23.3,30.22,WNW,288,0.0,0.0,39,0.00,,,0.00,0,WeatherCatV1.23B16,2013-11-13 02:27:00,
2013-11-12 18:32:00,46.8,23.2,30.23,WNW,288,0.0,0.0,39,0.00,,,0.00,0,WeatherCatV1.23B16,2013-11-13 02:32:00,
2013-11-12 18:37:00,46.7,23.1,30.23,West,276,0.0,3.0,39,0.00,,,0.00,0,WeatherCatV1.23B16,2013-11-13 02:37:00,
2013-11-12 18:42:00,46.5,22.3,30.23,WSW,244,2.0,3.0,38,0.00,,,0.00,0,WeatherCatV1.23B16,2013-11-13 02:42:00,
2013-11-12 18:47:00,46.4,22.2,30.25,WSW,244,0.0,0.0,38,0.00,,,0.00,0,WeatherCatV1.23B16,2013-11-13 02:47:00,
2013-11-12 18:52:00,46.1,21.9,30.25,WSW,244,2.0,3.0,38,0.00,,,0.00,0,WeatherCatV1.23B16,2013-11-13 02:52:00,
2013-11-12 18:57:00,46.0,22.5,30.25,WSW,244,2.0,3.0,39,0.00,,,0.00,0,WeatherCatV1.23B16,2013-11-13 02:57:00,
2013-11-12 19:02:00,45.8,22.3,30.25,WSW,244,2.0,3.0,39,0.00,,,0.00,0,WeatherCatV1.23B16,2013-11-13 03:02:00,
2013-11-12 19:07:00,45.7,21.6,30.25,WSW,243,2.0,2.0,38,0.00,,,0.00,0,WeatherCatV1.23B16,2013-11-13 03:07:00,
2013-11-12 19:12:00,45.5,21.4,30.25,WSW,243,2.0,2.0,38,0.00,,,0.00,0,WeatherCatV1.23B16,2013-11-13 03:12:00,
2013-11-12 19:17:00,45.5,21.4,30.23,SSW,212,3.0,5.0,38,0.00,,,0.00,0,WeatherCatV1.23B16,2013-11-13 03:17:00,
2013-11-12 19:22:00,45.5,20.8,30.23,SSW,212,2.0,2.0,37,0.00,,,0.00,0,WeatherCatV1.23B16,2013-11-13 03:22:00,
2013-11-12 19:27:00,45.5,20.8,30.23,SSW,212,0.0,3.0,37,0.00,,,0.00,0,WeatherCatV1.23B16,2013-11-13 03:27:00,
2013-11-12 19:32:00,45.7,21.6,30.23,SSW,200,0.0,3.0,38,0.00,,,0.00,0,WeatherCatV1.23B16,2013-11-13 03:32:00,
2013-11-12 19:37:00,45.5,21.4,30.23,South,186,0.0,0.0,38,0.00,,,0.00,0,WeatherCatV1.23B16,2013-11-13 03:37:00,
2013-11-12 19:42:00,45.4,20.7,30.23,South,180,0.0,1.0,37,0.00,,,0.00,0,WeatherCatV1.23B16,2013-11-13 03:42:00,
2013-11-12 19:47:00,45.1,20.4,30.25,South,180,0.0,0.0,37,0.00,,,0.00,0,WeatherCatV1.23B16,2013-11-13 03:47:00,
2013-11-12 19:52:00,44.9,20.2,30.25,South,179,0.0,0.0,37,0.00,,,0.00,0,WeatherCatV1.23B16,2013-11-13 03:52:00,
2013-11-12 19:57:00,44.6,20.0,30.25,South,176,0.0,0.0,37,0.00,,,0.00,0,WeatherCatV1.23B16,2013-11-13 03:57:00,
2013-11-12 20:02:00,44.5,19.2,30.25,SSE,155,0.0,1.0,36,0.00,,,0.00,0,WeatherCatV1.23B16,2013-11-13 04:02:00,
2013-11-12 20:07:00,44.6,19.3,30.25,SSE,147,3.0,3.0,36,0.00,,,0.00,0,WeatherCatV1.23B16,2013-11-13 04:07:00,
2013-11-12 20:12:00,45.1,19.8,30.25,SSE,147,0.0,3.0,36,0.00,,,0.00,0,WeatherCatV1.23B16,2013-11-13 04:12:00,
2013-11-12 20:17:00,45.4,19.4,30.26,SSE,147,0.0,0.0,35,0.00,,,0.00,0,WeatherCatV1.23B16,2013-11-13 04:17:00,
2013-11-12 20:22:00,45.5,19.5,30.26,SE,145,0.0,2.0,35,0.00,,,0.00,0,WeatherCatV1.23B16,2013-11-13 04:22:00,
2013-11-12 20:27:00,45.4,20.0,30.26,SE,143,0.0,0.0,36,0.00,,,0.00,0,WeatherCatV1.23B16,2013-11-13 04:27:00,
2013-11-12 20:32:00,45.4,19.4,30.26,SE,143,0.0,0.0,35,0.00,,,0.00,0,WeatherCatV1.23B16,2013-11-13 04:32:00,
2013-11-12 20:37:00,45.1,19.8,30.26,SE,142,0.0,1.0,36,0.00,,,0.00,0,WeatherCatV1.23B16,2013-11-13 04:37:00,
2013-11-12 20:42:00,44.9,18.9,30.26,SE,141,0.0,0.0,35,0.00,,,0.00,0,WeatherCatV1.23B16,2013-11-13 04:42:00,
2013-11-12 20:47:00,44.9,18.9,30.26,SE,141,0.0,1.0,35,0.00,,,0.00,0,WeatherCatV1.23B16,2013-11-13 04:47:00,
2013-11-12 20:52:00,44.8,19.5,30.26,SE,141,0.0,0.0,36,0.00,,,0.00,0,WeatherCatV1.23B16,2013-11-13 04:52:00,
2013-11-12 20:57:00,44.6,19.3,30.26,SE,141,0.0,0.0,36,0.00,,,0.00,0,WeatherCatV1.23B16,2013-11-13 04:57:00,
2013-11-12 21:01:00,44.5,19.2,30.26,SE,141,0.0,0.0,36,0.00,,,0.00,0,WeatherCatV1.23B16,2013-11-13 05:01:00,
2013-11-12 21:02:00,44.5,19.2,30.26,SE,141,0.0,0.0,36,0.00,,,0.00,0,WeatherCatV1.23B16,2013-11-13 05:02:00,
2013-11-12 21:03:00,44.5,19.2,30.26,SE,140,3.0,3.0,36,0.00,,,0.00,0,WeatherCatV1.23B16,2013-11-13 05:03:00,
2013-11-12 21:04:00,44.5,19.2,30.26,SE,139,0.0,3.0,36,0.00,,,0.00,0,WeatherCatV1.23B16,2013-11-13 05:04:00,
2013-11-12 21:07:00,44.5,19.2,30.26,ESE,120,0.0,3.0,36,0.00,,,0.00,0,WeatherCatV1.23B16,2013-11-13 05:07:00,
2013-11-12 21:12:00,44.5,19.2,30.26,ESE,116,2.0,3.0,36,0.00,,,0.00,0,WeatherCatV1.23B16,2013-11-13 05:12:00,
2013-11-12 21:17:00,44.9,18.9,30.24,ESE,116,0.0,3.0,35,0.00,,,0.00,0,WeatherCatV1.23B16,2013-11-13 05:17:00,
2013-11-12 21:22:00,45.1,19.1,30.24,ESE,110,2.0,5.0,35,0.00,,,0.00,0,WeatherCatV1.23B16,2013-11-13 05:22:00,
2013-11-12 21:27:00,45.2,19.2,30.24,ESE,107,0.0,3.0,35,0.00,,,0.00,0,WeatherCatV1.23B16,2013-11-13 05:27:00,
2013-11-12 21:32:00,45.2,19.2,30.24,ESE,109,0.0,4.0,35,0.00,,,0.00,0,WeatherCatV1.23B16,2013-11-13 05:32:00,
2013-11-12 21:38:00,45.1,19.1,30.24,ESE,110,0.0,2.0,35,0.00,,,0.00,0,WeatherCatV1.23B16,2013-11-13 05:38:00,
2013-11-12 21:43:00,45.1,19.1,30.24,ESE,110,0.0,0.0,35,0.00,,,0.00,0,WeatherCatV1.23B16,2013-11-13 05:43:00,
2013-11-12 21:48:00,45.1,19.1,30.24,ESE,110,4.0,4.0,35,0.00,,,0.00,0,WeatherCatV1.23B16,2013-11-13 05:48:00,
2013-11-12 21:53:00,45.4,19.4,30.24,ESE,117,1.0,3.0,35,0.00,,,0.00,0,WeatherCatV1.23B16,2013-11-13 05:53:00,
2013-11-12 21:58:00,45.5,19.5,30.24,SE,130,1.0,4.0,35,0.00,,,0.00,0,WeatherCatV1.23B16,2013-11-13 05:58:00,
2013-11-12 22:03:00,45.8,19.7,30.23,SE,130,0.0,2.0,35,0.00,,,0.00,0,WeatherCatV1.23B16,2013-11-13 06:03:00,
2013-11-12 22:08:00,46.0,19.2,30.23,SE,130,0.0,3.0,34,0.00,,,0.00,0,WeatherCatV1.23B16,2013-11-13 06:08:00,
2013-11-12 22:13:00,46.0,19.9,30.23,SE,130,0.0,2.0,35,0.00,,,0.00,0,WeatherCatV1.23B16,2013-11-13 06:13:00,
2013-11-12 22:18:00,46.0,19.9,30.18,SE,130,0.0,0.0,35,0.00,,,0.00,0,WeatherCatV1.23B16,2013-11-13 06:18:00,
2013-11-12 22:23:00,45.8,19.7,30.18,SE,130,0.0,0.0,35,0.00,,,0.00,0,WeatherCatV1.23B16,2013-11-13 06:23:00,
2013-11-12 22:28:00,45.7,21.6,30.18,SE,130,3.0,3.0,38,0.00,,,0.00,0,WeatherCatV1.23B16,2013-11-13 06:28:00,
2013-11-12 22:33:00,45.4,23.1,30.18,SE,145,3.0,4.0,41,0.00,,,0.00,0,WeatherCatV1.23B16,2013-11-13 06:33:00,
2013-11-12 22:38:00,45.2,21.1,30.18,SSE,147,0.0,3.0,38,0.00,,,0.00,0,WeatherCatV1.23B16,2013-11-13 06:38:00,
2013-11-12 22:43:00,45.2,20.5,30.18,SSE,147,0.0,0.0,37,0.00,,,0.00,0,WeatherCatV1.23B16,2013-11-13 06:43:00,
2013-11-12 22:48:00,45.2,19.9,30.19,SSE,147,0.0,0.0,36,0.00,,,0.00,0,WeatherCatV1.23B16,2013-11-13 06:48:00,
2013-11-12 22:53:00,45.1,21.6,30.19,SSE,147,0.0,4.0,39,0.00,,,0.00,0,WeatherCatV1.23B16,2013-11-13 06:53:00,
2013-11-12 22:58:00,44.6,20.6,30.19,SE,146,0.0,0.0,38,0.00,,,0.00,0,WeatherCatV1.23B16,2013-11-13 06:58:00,
2013-11-12 23:03:00,44.3,20.3,30.19,SE,145,1.0,1.0,38,0.00,,,0.00,0,WeatherCatV1.23B16,2013-11-13 07:03:00,
2013-11-12 23:08:00,44.2,20.8,30.19,SE,145,0.0,1.0,39,0.00,,,0.00,0,WeatherCatV1.23B16,2013-11-13 07:08:00,
2013-11-12 23:13:00,43.9,20.6,30.19,SE,145,0.0,1.0,39,0.00,,,0.00,0,WeatherCatV1.23B16,2013-11-13 07:13:00,
2013-11-12 23:18:00,43.9,20.6,30.22,SE,142,0.0,3.0,39,0.00,,,0.00,0,WeatherCatV1.23B16,2013-11-13 07:18:00,
2013-11-12 23:23:00,43.8,21.1,30.22,SE,137,0.0,1.0,40,0.00,,,0.00,0,WeatherCatV1.23B16,2013-11-13 07:23:00,
2013-11-12 23:28:00,43.5,20.2,30.22,SE,137,0.0,0.0,39,0.00,,,0.00,0,WeatherCatV1.23B16,2013-11-13 07:28:00,
2013-11-12 23:33:00,43.2,20.5,30.24,SE,137,0.0,0.0,40,0.00,,,0.00,0,WeatherCatV1.23B16,2013-11-13 07:33:00,
2013-11-12 23:38:00,43.1,19.9,30.24,ESE,116,0.0,2.0,39,0.00,,,0.00,0,WeatherCatV1.23B16,2013-11-13 07:38:00,
2013-11-12 23:43:00,42.9,18.4,30.24,ESE,116,0.0,0.0,37,0.00,,,0.00,0,WeatherCatV1.23B16,2013-11-13 07:43:00,
2013-11-12 23:48:00,42.8,17.1,30.24,ESE,115,0.0,1.0,35,0.00,,,0.00,0,WeatherCatV1.23B16,2013-11-13 07:48:00,
2013-11-12 23:53:00,42.8,17.1,30.24,ESE,116,0.0,0.0,35,0.00,,,0.00,0,WeatherCatV1.23B16,2013-11-13 07:53:00,
2013-11-12 23:58:00,42.8,17.1,30.24,ESE,116,0.0,3.0,35,0.00,,,0.00,0,WeatherCatV1.23B16,2013-11-13 07:58:00,